START_TIME,STEP,MOV.,M6,t_acc.,M7,t_acc.,M19,t_acc.,H36,t_acc.
1979-07-16 12:00:27.270 ,0,0,0.,12.0,0.,12.0,0.,12.0,0.,12.0
1979-07-16 12:00:39.270 ,0,0,0.,12.0,0.,12.0,0.,12.0,0.,12.0
1979-07-16 12:00:51.270 ,1,1,0.,12.0,0.,12.0,0.,12.0,0.,12.0
1979-07-16 12:01:03.270 ,1,1,0.,12.0,0.,12.0,0.,12.0,0.,12.0
1979-07-16 12:01:15.270 ,1,0,0.,12.0,0.,12.0,0.,12.0,0.,12.0
1979-07-16 12:01:27.270 ,1,0,0.,12.0,0.,12.0,0.,12.0,0.,12.0
1979-07-16 12:01:39.270 ,2,1,0.,12.0,0.,12.0,0.,12.0,0.,12.0
1979-07-16 12:01:51.270 ,2,1,0.,12.0,0.,12.0,0.,12.0,0.,12.0
1979-07-16 12:02:03.270 ,2,0,0.,12.0,0.,12.0,0.,12.0,0.,12.0
1979-07-16 12:02:15.270 ,2,0,0.,12.0,0.,12.0,0.,12.0,0.,12.0
1979-07-16 12:02:27.270 ,3,1,0.,12.0,0.,12.0,0.,12.0,0.,12.0
1979-07-16 12:02:39.270 ,3,1,0.,12.0,0.,12.0,0.,12.0,0.,12.0
1979-07-16 12:02:51.270 ,3,0,0.,12.0,0.,12.0,0.,12.0,0.,12.0
1979-07-16 12:03:03.270 ,3,0,0.,12.0,0.,12.0,0.,12.0,0.,12.0
1979-07-16 12:03:15.270 ,4,1,0.,12.0,0.,12.0,0.,12.0,0.,12.0
1979-07-16 12:03:27.270 ,4,1,0.,12.0,0.,12.0,0.,12.0,0.,12.0
1979-07-16 12:03:39.270 ,4,0,0.,12.0,0.,12.0,0.,12.0,0.,12.0
1979-07-16 12:03:51.270 ,4,0,0.,12.0,0.,12.0,0.,12.0,0.,12.0
1979-07-16 12:04:03.270 ,5,1,0.,12.0,0.,12.0,0.,12.0,0.,12.0
1979-07-16 12:04:15.270 ,5,1,0.,12.0,0.,12.0,0.,12.0,0.,12.0
1979-07-16 12:04:27.270 ,5,0,0.,12.0,0.,12.0,0.,12.0,0.,12.0
1979-07-16 12:04:39.270 ,5,0,0.,12.0,0.,12.0,0.,12.0,0.,12.0
1979-07-16 12:04:51.270 ,6,1,0.,12.0,0.,12.0,0.,12.0,0.,12.0
1979-07-16 12:05:03.270 ,6,1,0.,12.0,0.,12.0,0.,12.0,0.,12.0
1979-07-16 12:05:15.270 ,6,0,0.,12.0,0.,12.0,0.,12.0,0.,12.0
1979-07-16 12:05:27.270 ,6,0,0.,12.0,0.,12.0,0.,12.0,0.,12.0
1979-07-16 12:05:39.270 ,7,1,0.,12.0,0.,12.0,0.,12.0,0.,12.0
1979-07-16 12:05:51.270 ,7,1,0.,12.0,0.,12.0,0.,12.0,0.,12.0
1979-07-16 12:06:03.270 ,7,0,0.,12.0,0.,12.0,0.,12.0,0.,12.0
1979-07-16 12:06:15.270 ,7,0,0.,12.0,0.,12.0,0.,12.0,0.,12.0
1979-07-16 12:06:27.270 ,7,1,0.,12.0,0.,12.0,0.,12.0,0.,12.0
1979-07-16 12:06:39.270 ,7,1,0.,12.0,0.,12.0,0.,12.0,0.,12.0
1979-07-16 12:06:51.270 ,7,0,0.,12.0,0.,12.0,0.,12.0,0.,12.0
1979-07-16 12:07:03.270 ,7,0,0.,12.0,0.,12.0,0.,12.0,0.,12.0
1979-07-16 12:07:15.270 ,6,1,0.,12.0,0.,12.0,0.,12.0,0.,12.0
1979-07-16 12:07:27.270 ,6,1,0.,12.0,0.,12.0,0.,12.0,0.,12.0
1979-07-16 12:07:39.270 ,6,0,0.,12.0,0.,12.0,0.,12.0,0.,12.0
1979-07-16 12:07:51.270 ,6,0,0.,12.0,0.,12.0,0.,12.0,0.,12.0
1979-07-16 12:09:39.270 ,0,0,0.,12.0,0.,12.0,0.,12.0,0.,12.0
1979-07-16 12:09:51.270 ,0,0,0.,12.0,0.,12.0,0.,12.0,0.,12.0
1979-07-16 12:10:03.270 ,0,0,0.,12.0,0.,12.0,0.,12.0,0.,12.0
1979-07-16 12:10:15.270 ,0,0,0.,12.0,0.,12.0,0.,12.0,0.,12.0
1979-07-16 12:10:27.270 ,2,1,0.,12.0,0.,12.0,0.,12.0,0.,12.0
1979-07-16 12:10:39.270 ,2,1,0.,12.0,0.,12.0,0.,12.0,0.,12.0
1979-07-16 12:10:51.270 ,2,0,0.,12.0,0.,12.0,0.,12.0,0.,12.0
1979-07-16 12:11:03.270 ,2,0,0.,12.0,0.,12.0,0.,12.0,0.,12.0
1979-07-16 12:12:03.270 ,0,0,0.,12.0,0.,12.0,0.,12.0,0.,12.0
1979-07-16 12:12:15.270 ,0,0,0.,12.0,0.,12.0,0.,12.0,0.,12.0
1979-07-16 12:12:27.270 ,0,0,0.,12.0,0.,12.0,0.,12.0,0.,12.0
1979-07-16 12:12:39.270 ,0,0,0.,12.0,0.,12.0,0.,12.0,0.,12.0
1979-07-16 12:12:51.270 ,0,1,0.,12.0,0.,12.0,0.,12.0,0.,12.0
1979-07-16 12:13:03.270 ,0,1,0.,12.0,0.,12.0,0.,12.0,0.,12.0
1979-07-16 12:13:15.270 ,0,0,0.,12.0,0.,12.0,0.,12.0,0.,12.0
1979-07-16 12:13:27.270 ,0,0,0.,12.0,0.,12.0,0.,12.0,0.,12.0
1979-07-16 12:13:39.270 ,1,1,0.,12.0,0.,12.0,0.,12.0,0.,12.0
1979-07-16 12:13:51.270 ,1,1,0.,12.0,0.,12.0,0.,12.0,0.,12.0
1979-07-16 12:14:03.270 ,1,0,0.,12.0,0.,12.0,0.,12.0,0.,12.0
1979-07-16 12:14:15.270 ,1,0,0.,12.0,0.,12.0,0.,12.0,0.,12.0
1979-07-16 12:15:15.270 ,0,0,0.,12.0,0.,12.0,0.,12.0,0.,12.0
1979-07-16 12:15:27.270 ,0,0,0.,12.0,0.,12.0,0.,12.0,0.,12.0
1979-07-16 12:15:39.270 ,0,0,0.,12.0,0.,12.0,0.,12.0,0.,12.0
1979-07-16 12:15:51.270 ,0,0,0.,12.0,0.,12.0,0.,12.0,0.,12.0
1979-07-16 12:16:03.270 ,4,1,1.,12.0,0.,12.0,0.,12.0,0.,12.0
1979-07-16 12:16:15.270 ,4,1,0.,12.0,0.,12.0,0.,12.0,0.,12.0
1979-07-16 12:16:27.270 ,4,0,0.,12.0,0.,12.0,0.,12.0,0.,12.0
1979-07-16 12:16:39.270 ,4,0,0.,12.0,0.,12.0,0.,12.0,0.,12.0
1979-07-16 12:16:51.270 ,5,1,0.,12.0,0.,12.0,0.,12.0,0.,12.0
1979-07-16 12:17:03.270 ,5,1,0.,12.0,0.,12.0,0.,12.0,0.,12.0
1979-07-16 12:17:15.270 ,5,0,0.,12.0,0.,12.0,0.,12.0,0.,12.0
1979-07-16 12:17:27.270 ,5,0,1.,12.0,0.,12.0,0.,12.0,0.,12.0
1979-07-16 12:17:39.270 ,6,1,0.,12.0,0.,12.0,0.,12.0,0.,12.0
1979-07-16 12:17:51.270 ,6,1,0.,12.0,0.,12.0,0.,12.0,0.,12.0
1979-07-16 12:18:03.270 ,6,0,0.,12.0,0.,12.0,0.,12.0,0.,12.0
1979-07-16 12:18:15.270 ,6,0,0.,12.0,0.,12.0,0.,12.0,0.,12.0
1979-07-16 12:18:27.270 ,7,0,0.,12.0,0.,12.0,0.,12.0,0.,12.0
1979-07-16 12:18:39.270 ,7,0,0.,12.0,0.,12.0,0.,12.0,0.,12.0
1979-07-16 12:18:51.270 ,7,0,0.,12.0,0.,12.0,0.,12.0,0.,12.0
1979-07-16 12:19:03.270 ,7,0,0.,12.0,0.,12.0,0.,12.0,0.,12.0
1979-07-16 12:19:15.270 ,4,1,0.,12.0,0.,12.0,0.,12.0,0.,12.0
1979-07-16 12:19:27.270 ,4,1,0.,12.0,0.,12.0,0.,12.0,0.,12.0
1979-07-16 12:19:39.270 ,0,1,0.,12.0,0.,12.0,0.,12.0,0.,12.0
1979-07-16 12:19:51.270 ,0,1,0.,12.0,0.,12.0,0.,12.0,0.,12.0
1979-07-16 12:20:03.270 ,3,1,0.,12.0,0.,12.0,0.,12.0,0.,12.0
1979-07-16 12:20:15.270 ,3,1,0.,12.0,0.,12.0,0.,12.0,0.,12.0
1979-07-16 12:20:27.270 ,7,1,0.,12.0,0.,12.0,0.,12.0,0.,12.0
1979-07-16 12:20:39.270 ,7,1,0.,12.0,0.,12.0,0.,12.0,0.,12.0
1979-07-16 12:20:51.270 ,4,1,0.,12.0,0.,12.0,0.,12.0,0.,12.0
1979-07-16 12:21:03.270 ,4,1,0.,12.0,0.,12.0,0.,12.0,0.,12.0
1979-07-16 12:21:15.270 ,0,1,0.,12.0,0.,12.0,0.,12.0,0.,12.0
1979-07-16 12:21:27.270 ,0,1,0.,12.0,0.,12.0,0.,12.0,0.,12.0
1979-07-16 12:21:39.270 ,3,1,0.,12.0,0.,12.0,0.,12.0,0.,12.0
1979-07-16 12:21:51.270 ,3,1,0.,12.0,0.,12.0,0.,12.0,0.,12.0
1979-07-16 12:22:03.270 ,7,1,0.,12.0,0.,12.0,0.,12.0,0.,12.0
1979-07-16 12:22:15.270 ,7,1,0.,12.0,0.,12.0,0.,12.0,0.,12.0
1979-07-16 12:22:27.270 ,4,1,0.,12.0,0.,12.0,0.,12.0,0.,12.0
1979-07-16 12:22:39.270 ,4,1,0.,12.0,0.,12.0,0.,12.0,0.,12.0
1979-07-16 12:22:51.270 ,0,1,0.,12.0,0.,12.0,0.,12.0,0.,12.0
1979-07-16 12:23:03.270 ,0,1,0.,12.0,0.,12.0,0.,12.0,0.,12.0
1979-07-16 12:23:15.270 ,3,1,0.,12.0,0.,12.0,0.,12.0,0.,12.0
1979-07-16 12:23:27.270 ,3,1,0.,12.0,0.,12.0,0.,12.0,0.,12.0
1979-07-16 12:23:39.270 ,7,1,0.,12.0,0.,12.0,0.,12.0,0.,12.0
1979-07-16 12:23:51.270 ,7,1,0.,12.0,0.,12.0,0.,12.0,0.,12.0
1979-07-16 12:24:03.270 ,6,1,0.,12.0,0.,12.0,0.,12.0,0.,12.0
1979-07-16 12:24:15.270 ,6,1,,0,,0,,0,,0
1979-07-16 12:24:27.270 ,0,1,0.,12.0,0.,12.0,0.,12.0,0.,12.0
1979-07-16 12:24:39.270 ,0,1,0.,12.0,0.,12.0,0.,12.0,0.,12.0
1979-07-16 12:24:51.270 ,3,1,0.,12.0,0.,12.0,0.,12.0,0.,12.0
1979-07-16 12:25:03.270 ,3,1,0.,12.0,0.,12.0,0.,12.0,0.,12.0
1979-07-16 12:25:15.270 ,7,1,0.,12.0,0.,12.0,0.,12.0,0.,12.0
1979-07-16 12:25:27.270 ,7,1,0.,12.0,0.,12.0,0.,12.0,0.,12.0
1979-07-16 12:25:39.270 ,4,1,0.,12.0,0.,12.0,0.,12.0,0.,12.0
1979-07-16 12:25:51.270 ,4,1,0.,12.0,0.,12.0,0.,12.0,0.,12.0
1979-07-16 12:26:03.270 ,0,1,0.,12.0,0.,12.0,0.,12.0,0.,12.0
1979-07-16 12:26:15.270 ,0,1,0.,12.0,0.,12.0,0.,12.0,0.,12.0
1979-07-16 12:26:27.270 ,3,1,0.,12.0,0.,12.0,0.,12.0,0.,12.0
1979-07-16 12:26:39.270 ,3,1,0.,12.0,0.,12.0,0.,12.0,0.,12.0
1979-07-16 12:26:51.270 ,7,1,0.,12.0,0.,12.0,0.,12.0,0.,12.0
1979-07-16 12:27:03.270 ,7,1,0.,12.0,0.,12.0,0.,12.0,0.,12.0
1979-07-16 12:27:15.270 ,4,1,0.,12.0,0.,12.0,0.,12.0,0.,12.0
1979-07-16 12:27:27.270 ,4,1,0.,12.0,0.,12.0,0.,12.0,0.,12.0
1979-07-16 12:27:39.270 ,0,1,0.,12.0,0.,12.0,0.,12.0,0.,12.0
1979-07-16 12:27:51.270 ,0,1,0.,12.0,0.,12.0,0.,12.0,0.,12.0
1979-07-16 12:28:03.270 ,3,1,0.,12.0,0.,12.0,0.,12.0,0.,12.0
1979-07-16 12:28:15.270 ,3,1,0.,12.0,0.,12.0,0.,12.0,0.,12.0
1979-07-16 12:28:27.270 ,7,1,0.,12.0,0.,12.0,0.,12.0,0.,12.0
1979-07-16 12:28:39.270 ,7,1,0.,12.0,0.,12.0,0.,12.0,0.,12.0
1979-07-16 12:28:51.270 ,4,1,0.,12.0,0.,12.0,0.,12.0,0.,12.0
1979-07-16 12:29:03.270 ,4,1,0.,12.0,0.,12.0,0.,12.0,0.,12.0
1979-07-16 12:29:15.270 ,0,1,0.,12.0,0.,12.0,0.,12.0,0.,12.0
1979-07-16 12:29:27.270 ,0,1,0.,12.0,0.,12.0,0.,12.0,0.,12.0
1979-07-16 12:29:39.270 ,0,0,0.,12.0,0.,12.0,0.,12.0,0.,12.0
1979-07-16 12:29:51.270 ,0,0,0.,12.0,0.,12.0,0.,12.0,0.,12.0
1979-07-16 12:30:03.270 ,0,0,0.,12.0,0.,12.0,0.,12.0,0.,12.0
1979-07-16 12:30:15.270 ,0,0,0.,12.0,0.,12.0,0.,12.0,0.,12.0
1979-07-16 12:30:27.270 ,5,1,0.,12.0,0.,12.0,0.,12.0,0.,12.0
1979-07-16 12:30:39.270 ,5,1,0.,12.0,0.,12.0,0.,12.0,0.,12.0
1979-07-16 12:30:51.270 ,5,0,0.,12.0,0.,12.0,0.,12.0,0.,12.0
1979-07-16 12:31:03.270 ,5,0,0.,12.0,0.,12.0,0.,12.0,0.,12.0
1979-07-16 12:31:15.270 ,4,1,0.,12.0,0.,12.0,0.,12.0,0.,12.0
1979-07-16 12:31:27.270 ,4,1,0.,12.0,0.,12.0,0.,12.0,0.,12.0
1979-07-16 12:31:39.270 ,4,0,0.,12.0,0.,12.0,0.,12.0,0.,12.0
1979-07-16 12:31:51.270 ,4,0,0.,12.0,0.,12.0,0.,12.0,0.,12.0
1979-07-16 12:32:03.270 ,3,1,0.,12.0,0.,12.0,0.,12.0,0.,12.0
1979-07-16 12:32:15.270 ,3,1,0.,12.0,0.,12.0,0.,12.0,0.,12.0
1979-07-16 12:32:27.270 ,3,0,0.,12.0,0.,12.0,0.,12.0,0.,12.0
1979-07-16 12:32:39.270 ,3,0,0.,12.0,0.,12.0,0.,12.0,0.,12.0
1979-07-16 12:32:51.270 ,2,1,0.,12.0,0.,12.0,0.,12.0,0.,12.0
1979-07-16 12:33:03.270 ,2,1,0.,12.0,0.,12.0,0.,12.0,0.,12.0
1979-07-16 12:33:15.270 ,2,0,0.,12.0,0.,12.0,0.,12.0,0.,12.0
1979-07-16 12:33:27.270 ,2,0,0.,12.0,0.,12.0,0.,12.0,0.,12.0
1979-07-16 12:33:39.270 ,1,1,0.,12.0,0.,12.0,0.,12.0,0.,12.0
1979-07-16 12:33:51.270 ,1,1,0.,12.0,0.,12.0,0.,12.0,0.,12.0
1979-07-16 12:34:03.270 ,1,0,,0,,0,,0,,0
1979-07-16 12:34:15.270 ,1,0,0.,12.0,0.,12.0,0.,12.0,0.,12.0
1979-07-16 12:34:27.270 ,0,1,0.,12.0,0.,12.0,0.,12.0,0.,12.0
1979-07-16 12:34:39.270 ,0,1,0.,12.0,0.,12.0,0.,12.0,0.,12.0
1979-07-16 12:34:51.270 ,0,0,0.,12.0,0.,12.0,0.,12.0,0.,12.0
1979-07-16 12:35:03.270 ,0,0,0.,12.0,0.,12.0,0.,12.0,0.,12.0
1979-07-16 12:35:15.270 ,0,1,0.,12.0,0.,12.0,0.,12.0,0.,12.0
1979-07-16 12:35:27.270 ,0,1,0.,12.0,0.,12.0,0.,12.0,0.,12.0
1979-07-16 12:35:39.270 ,0,0,0.,12.0,0.,12.0,0.,12.0,0.,12.0
1979-07-16 12:35:51.270 ,0,0,0.,12.0,0.,12.0,0.,12.0,0.,12.0
1979-07-16 12:36:03.270 ,1,1,0.,12.0,0.,12.0,0.,12.0,0.,12.0
1979-07-16 12:36:15.270 ,1,1,0.,12.0,0.,12.0,0.,12.0,0.,12.0
1979-07-16 12:36:27.270 ,1,0,0.,12.0,0.,12.0,0.,12.0,0.,12.0
1979-07-16 12:36:39.270 ,1,0,0.,12.0,0.,12.0,0.,12.0,0.,12.0
1979-07-16 12:36:51.270 ,2,1,0.,12.0,0.,12.0,0.,12.0,0.,12.0
1979-07-16 12:37:03.270 ,2,1,0.,12.0,0.,12.0,0.,12.0,0.,12.0
1979-07-16 12:37:15.270 ,2,0,0.,12.0,0.,12.0,0.,12.0,0.,12.0
1979-07-16 12:37:27.270 ,2,0,0.,12.0,0.,12.0,0.,12.0,0.,12.0
1979-07-16 12:37:39.270 ,3,1,0.,12.0,0.,12.0,0.,12.0,0.,12.0
1979-07-16 12:37:51.270 ,3,1,0.,12.0,0.,12.0,0.,12.0,0.,12.0
1979-07-16 12:38:03.270 ,3,0,0.,12.0,0.,12.0,0.,12.0,0.,12.0
1979-07-16 12:38:15.270 ,3,0,0.,12.0,0.,12.0,0.,12.0,0.,12.0
1979-07-16 12:38:27.270 ,4,1,0.,12.0,0.,12.0,0.,12.0,0.,12.0
1979-07-16 12:38:39.270 ,4,1,0.,12.0,0.,12.0,0.,12.0,0.,12.0
1979-07-16 12:38:51.270 ,4,0,0.,12.0,0.,12.0,0.,12.0,0.,12.0
1979-07-16 12:39:03.270 ,4,0,0.,12.0,0.,12.0,0.,12.0,0.,12.0
1979-07-16 12:39:15.270 ,5,1,0.,12.0,0.,12.0,0.,12.0,0.,12.0
1979-07-16 12:39:27.270 ,5,1,0.,12.0,0.,12.0,0.,12.0,0.,12.0
1979-07-16 12:39:39.270 ,5,0,0.,12.0,0.,12.0,0.,12.0,0.,12.0
1979-07-16 12:39:51.270 ,5,0,0.,12.0,0.,12.0,0.,12.0,0.,12.0
1979-07-16 12:40:03.270 ,6,1,0.,12.0,0.,12.0,0.,12.0,0.,12.0
1979-07-16 12:40:15.270 ,6,1,0.,12.0,0.,12.0,0.,12.0,0.,12.0
1979-07-16 12:40:27.270 ,6,0,0.,12.0,0.,12.0,0.,12.0,0.,12.0
1979-07-16 12:40:39.270 ,6,0,0.,12.0,0.,12.0,0.,12.0,0.,12.0
1979-07-16 12:40:51.170 ,7,1,0.,12.0,0.,12.0,0.,12.0,0.,12.0
1979-07-16 12:41:03.170 ,7,1,0.,12.0,0.,12.0,0.,12.0,0.,12.0
1979-07-16 12:41:15.170 ,7,0,0.,12.0,0.,12.0,0.,12.0,0.,12.0
1979-07-16 12:41:27.170 ,7,0,0.,12.0,0.,12.0,0.,12.0,0.,12.0
1979-07-16 12:41:39.170 ,7,1,0.,12.0,0.,12.0,0.,12.0,0.,12.0
1979-07-16 12:41:51.170 ,7,1,0.,12.0,0.,12.0,0.,12.0,0.,12.0
1979-07-16 12:42:03.170 ,7,0,0.,12.0,0.,12.0,0.,12.0,0.,12.0
1979-07-16 12:42:15.170 ,7,0,0.,12.0,0.,12.0,0.,12.0,0.,12.0
1979-07-16 12:42:27.170 ,6,1,0.,12.0,0.,12.0,0.,12.0,0.,12.0
1979-07-16 12:42:39.170 ,6,1,0.,12.0,0.,12.0,0.,12.0,0.,12.0
1979-07-16 12:42:51.170 ,6,0,0.,12.0,0.,12.0,0.,12.0,0.,12.0
1979-07-16 12:43:03.170 ,6,0,0.,12.0,0.,12.0,0.,12.0,0.,12.0
1979-07-16 12:44:11.570 ,0,0,,0,,0,,0,,0
1979-07-16 12:44:23.570 ,0,0,0.,12.0,0.,12.0,0.,12.0,0.,12.0
1979-07-16 12:44:27.170 ,0,0,,0,,0,,0,,0
1979-07-16 12:44:39.170 ,0,0,0.,12.0,0.,12.0,0.,12.0,0.,12.0
1979-07-16 12:44:51.170 ,3,1,0.,12.0,0.,12.0,0.,12.0,0.,12.0
1979-07-16 12:45:03.170 ,3,1,0.,12.0,0.,12.0,0.,12.0,0.,12.0
1979-07-16 12:45:15.170 ,3,0,0.,12.0,0.,12.0,0.,12.0,0.,12.0
1979-07-16 12:45:27.170 ,3,0,0.,12.0,0.,12.0,0.,12.0,0.,12.0
1979-07-16 12:45:39.170 ,2,1,0.,12.0,0.,12.0,0.,12.0,0.,12.0
1979-07-16 12:45:51.170 ,2,1,0.,12.0,0.,12.0,0.,12.0,0.,12.0
1979-07-16 12:46:03.170 ,2,0,0.,12.0,0.,12.0,0.,12.0,0.,12.0
1979-07-16 12:46:15.170 ,2,0,0.,12.0,0.,12.0,0.,12.0,0.,12.0
1979-07-16 12:46:27.170 ,1,1,0.,12.0,0.,12.0,0.,12.0,0.,12.0
1979-07-16 12:46:39.170 ,1,1,0.,12.0,0.,12.0,0.,12.0,0.,12.0
1979-07-16 12:46:51.170 ,1,0,0.,12.0,0.,12.0,0.,12.0,0.,12.0
1979-07-16 12:47:03.170 ,1,0,0.,12.0,0.,12.0,0.,12.0,0.,12.0
1979-07-16 12:47:15.170 ,0,1,0.,12.0,0.,12.0,0.,12.0,0.,12.0
1979-07-16 12:47:27.170 ,0,1,0.,12.0,0.,12.0,0.,12.0,0.,12.0
1979-07-16 12:47:39.170 ,0,0,0.,12.0,0.,12.0,0.,12.0,0.,12.0
1979-07-16 12:47:51.170 ,0,0,0.,12.0,0.,12.0,0.,12.0,0.,12.0
1979-07-16 12:48:03.170 ,0,1,0.,12.0,0.,12.0,0.,12.0,0.,12.0
1979-07-16 12:48:15.170 ,0,1,0.,12.0,0.,12.0,0.,12.0,0.,12.0
1979-07-16 12:48:27.170 ,0,0,0.,12.0,0.,12.0,0.,12.0,0.,12.0
1979-07-16 12:48:39.170 ,0,0,0.,12.0,0.,12.0,0.,12.0,0.,12.0
1979-07-16 12:48:51.170 ,1,1,0.,12.0,0.,12.0,0.,12.0,0.,12.0
1979-07-16 12:49:03.170 ,1,1,0.,12.0,0.,12.0,0.,12.0,0.,12.0
1979-07-16 12:49:15.170 ,1,0,0.,12.0,0.,12.0,0.,12.0,0.,12.0
1979-07-16 12:49:27.170 ,1,0,0.,12.0,0.,12.0,0.,12.0,0.,12.0
1979-07-16 12:49:39.170 ,2,1,0.,12.0,0.,12.0,0.,12.0,0.,12.0
1979-07-16 12:49:51.170 ,2,1,0.,12.0,0.,12.0,0.,12.0,0.,12.0
1979-07-16 12:50:03.170 ,2,0,0.,12.0,0.,12.0,0.,12.0,0.,12.0
1979-07-16 12:50:15.170 ,2,0,0.,12.0,0.,12.0,0.,12.0,0.,12.0
1979-07-16 12:50:27.170 ,3,1,0.,12.0,0.,12.0,0.,12.0,0.,12.0
1979-07-16 12:50:39.170 ,3,1,0.,12.0,0.,12.0,0.,12.0,0.,12.0
1979-07-16 12:50:51.170 ,3,0,0.,12.0,0.,12.0,0.,12.0,0.,12.0
1979-07-16 12:51:03.170 ,3,0,1.,12.0,0.,12.0,0.,12.0,0.,12.0
1979-07-16 12:51:15.170 ,4,1,0.,12.0,0.,12.0,0.,12.0,0.,12.0
1979-07-16 12:51:27.170 ,4,1,0.,12.0,0.,12.0,0.,12.0,0.,12.0
1979-07-16 12:51:39.170 ,4,0,0.,12.0,0.,12.0,0.,12.0,0.,12.0
1979-07-16 12:51:51.170 ,4,0,0.,12.0,0.,12.0,0.,12.0,0.,12.0
1979-07-16 12:52:03.170 ,5,1,1.,12.0,0.,12.0,0.,12.0,0.,12.0
1979-07-16 12:52:15.170 ,5,1,0.,12.0,0.,12.0,0.,12.0,0.,12.0
1979-07-16 12:52:27.170 ,5,0,0.,12.0,0.,12.0,0.,12.0,0.,12.0
1979-07-16 12:52:39.170 ,5,0,0.,12.0,0.,12.0,0.,12.0,0.,12.0
1979-07-16 12:52:51.170 ,6,1,0.,12.0,0.,12.0,0.,12.0,0.,12.0
1979-07-16 12:53:03.170 ,6,1,0.,12.0,0.,12.0,0.,12.0,0.,12.0
1979-07-16 12:53:15.170 ,6,0,0.,12.0,0.,12.0,0.,12.0,0.,12.0
1979-07-16 12:53:27.170 ,6,0,0.,12.0,0.,12.0,0.,12.0,0.,12.0
1979-07-16 12:53:39.170 ,7,1,0.,12.0,0.,12.0,0.,12.0,0.,12.0
1979-07-16 12:53:51.170 ,7,1,0.,12.0,0.,12.0,0.,12.0,0.,12.0
1979-07-16 12:54:03.170 ,7,0,0.,12.0,0.,12.0,0.,12.0,0.,12.0
1979-07-16 12:54:15.170 ,7,0,0.,12.0,0.,12.0,0.,12.0,0.,12.0
1979-07-16 12:54:27.170 ,7,1,0.,12.0,0.,12.0,0.,12.0,0.,12.0
1979-07-16 12:54:39.170 ,7,1,0.,12.0,0.,12.0,0.,12.0,0.,12.0
1979-07-16 12:54:51.170 ,7,0,0.,12.0,0.,12.0,0.,12.0,0.,12.0
1979-07-16 12:55:03.170 ,7,0,0.,12.0,0.,12.0,0.,12.0,0.,12.0
1979-07-16 12:55:15.170 ,6,1,0.,12.0,0.,12.0,0.,12.0,0.,12.0
1979-07-16 12:55:27.170 ,6,1,0.,12.0,0.,12.0,0.,12.0,0.,12.0
1979-07-16 12:55:39.170 ,6,0,0.,12.0,0.,12.0,0.,12.0,0.,12.0
1979-07-16 12:55:51.170 ,6,0,0.,12.0,0.,12.0,0.,12.0,0.,12.0
1979-07-16 12:56:03.170 ,5,1,0.,12.0,0.,12.0,0.,12.0,0.,12.0
1979-07-16 12:56:15.170 ,5,1,0.,12.0,0.,12.0,0.,12.0,0.,12.0
1979-07-16 12:56:27.170 ,5,0,0.,12.0,0.,12.0,0.,12.0,0.,12.0
1979-07-16 12:56:39.170 ,5,0,0.,12.0,0.,12.0,0.,12.0,0.,12.0
1979-07-16 12:56:51.170 ,4,1,0.,12.0,0.,12.0,0.,12.0,0.,12.0
1979-07-16 12:57:03.170 ,4,1,0.,12.0,0.,12.0,0.,12.0,0.,12.0
1979-07-16 12:57:15.170 ,4,0,0.,12.0,0.,12.0,0.,12.0,0.,12.0
1979-07-16 12:57:27.170 ,4,0,0.,12.0,0.,12.0,0.,12.0,0.,12.0
1979-07-16 12:57:39.170 ,3,1,0.,12.0,0.,12.0,0.,12.0,0.,12.0
1979-07-16 12:57:51.170 ,3,1,0.,12.0,0.,12.0,0.,12.0,0.,12.0
1979-07-16 12:58:03.170 ,3,0,0.,12.0,0.,12.0,0.,12.0,0.,12.0
1979-07-16 12:58:15.170 ,3,0,0.,12.0,0.,12.0,0.,12.0,0.,12.0
1979-07-16 12:58:27.170 ,2,1,0.,12.0,0.,12.0,0.,12.0,0.,12.0
1979-07-16 12:58:39.170 ,2,1,0.,12.0,0.,12.0,0.,12.0,0.,12.0
1979-07-16 12:58:51.170 ,2,0,1.,12.0,0.,12.0,0.,12.0,0.,12.0
1979-07-16 12:59:03.170 ,2,0,0.,12.0,0.,12.0,0.,12.0,2.,12.0
1979-07-16 12:59:15.170 ,1,1,0.,12.0,0.,12.0,0.,12.0,0.,12.0
1979-07-16 12:59:27.170 ,1,1,0.,12.0,0.,12.0,0.,12.0,0.,12.0
1979-07-16 12:59:39.170 ,1,0,0.,12.0,0.,12.0,0.,12.0,0.,12.0
1979-07-16 12:59:51.170 ,1,0,0.,12.0,0.,12.0,0.,12.0,0.,12.0
1979-07-16 13:00:03.170 ,0,1,0.,12.0,0.,12.0,0.,12.0,0.,12.0
1979-07-16 13:00:15.170 ,0,1,0.,12.0,0.,12.0,0.,12.0,0.,12.0
1979-07-16 13:00:27.170 ,0,0,0.,12.0,0.,12.0,0.,12.0,0.,12.0
1979-07-16 13:00:39.170 ,0,0,0.,12.0,0.,12.0,0.,12.0,0.,12.0
1979-07-16 13:00:51.170 ,0,1,0.,12.0,0.,12.0,0.,12.0,0.,12.0
1979-07-16 13:01:03.170 ,0,1,0.,12.0,0.,12.0,0.,12.0,0.,12.0
1979-07-16 13:01:15.170 ,0,0,0.,12.0,0.,12.0,0.,12.0,0.,12.0
1979-07-16 13:01:27.170 ,0,0,0.,12.0,0.,12.0,0.,12.0,0.,12.0
1979-07-16 13:01:39.170 ,1,1,0.,12.0,0.,12.0,0.,12.0,0.,12.0
1979-07-16 13:01:51.170 ,1,1,0.,12.0,0.,12.0,0.,12.0,0.,12.0
1979-07-16 13:02:03.170 ,1,0,0.,12.0,0.,12.0,0.,12.0,0.,12.0
1979-07-16 13:02:15.170 ,1,0,0.,12.0,0.,12.0,0.,12.0,0.,12.0
1979-07-16 13:02:27.170 ,2,1,1.,12.0,0.,12.0,0.,12.0,0.,12.0
1979-07-16 13:02:39.170 ,2,1,1.,12.0,0.,12.0,0.,12.0,0.,12.0
1979-07-16 13:02:51.170 ,2,0,1.,12.0,0.,12.0,0.,12.0,0.,12.0
1979-07-16 13:03:03.170 ,2,0,0.,12.0,0.,12.0,0.,12.0,1.,12.0
1979-07-16 13:03:15.170 ,3,1,0.,12.0,0.,12.0,0.,12.0,0.,12.0
1979-07-16 13:03:27.170 ,3,1,0.,12.0,0.,12.0,0.,12.0,0.,12.0
1979-07-16 13:03:39.170 ,3,0,0.,12.0,0.,12.0,0.,12.0,0.,12.0
1979-07-16 13:03:51.170 ,3,0,0.,12.0,0.,12.0,0.,12.0,0.,12.0
1979-07-16 13:04:03.170 ,4,1,0.,12.0,0.,12.0,0.,12.0,0.,12.0
1979-07-16 13:04:15.170 ,4,1,0.,12.0,0.,12.0,0.,12.0,0.,12.0
1979-07-16 13:04:27.170 ,4,0,0.,12.0,0.,12.0,0.,12.0,0.,12.0
1979-07-16 13:04:39.170 ,4,0,0.,12.0,0.,12.0,0.,12.0,0.,12.0
1979-07-16 13:04:51.170 ,5,1,0.,12.0,0.,12.0,0.,12.0,0.,12.0
1979-07-16 13:05:03.170 ,5,1,0.,12.0,0.,12.0,0.,12.0,0.,12.0
1979-07-16 13:05:15.170 ,5,0,0.,12.0,0.,12.0,0.,12.0,0.,12.0
1979-07-16 13:05:27.170 ,5,0,0.,12.0,0.,12.0,0.,12.0,0.,12.0
1979-07-16 13:05:39.170 ,6,1,0.,12.0,0.,12.0,0.,12.0,0.,12.0
1979-07-16 13:05:51.170 ,6,1,0.,12.0,0.,12.0,0.,12.0,0.,12.0
1979-07-16 13:06:03.170 ,6,0,0.,12.0,0.,12.0,0.,12.0,0.,12.0
1979-07-16 13:06:15.170 ,6,0,0.,12.0,0.,12.0,0.,12.0,0.,12.0
1979-07-16 13:06:27.170 ,7,0,0.,12.0,0.,12.0,0.,12.0,0.,12.0
1979-07-16 13:06:39.170 ,7,0,0.,12.0,0.,12.0,0.,12.0,0.,12.0
1979-07-16 13:06:51.170 ,7,0,0.,12.0,0.,12.0,0.,12.0,0.,12.0
1979-07-16 13:07:03.170 ,7,0,0.,12.0,0.,12.0,0.,12.0,0.,12.0
1979-07-16 13:07:15.170 ,4,1,0.,12.0,0.,12.0,0.,12.0,0.,12.0
1979-07-16 13:07:27.170 ,4,1,0.,12.0,0.,12.0,0.,12.0,0.,12.0
1979-07-16 13:07:39.170 ,0,1,1.,12.0,0.,12.0,0.,12.0,0.,12.0
1979-07-16 13:07:51.170 ,0,1,0.,12.0,0.,12.0,0.,12.0,0.,12.0
1979-07-16 13:08:03.170 ,3,1,0.,12.0,0.,12.0,0.,12.0,0.,12.0
1979-07-16 13:08:15.170 ,3,1,0.,12.0,0.,12.0,0.,12.0,0.,12.0
1979-07-16 13:08:27.170 ,7,1,0.,12.0,0.,12.0,0.,12.0,0.,12.0
1979-07-16 13:08:39.170 ,7,1,0.,12.0,0.,12.0,0.,12.0,0.,12.0
1979-07-16 13:08:51.170 ,4,1,0.,12.0,0.,12.0,0.,12.0,0.,12.0
1979-07-16 13:09:03.170 ,4,1,0.,12.0,0.,12.0,0.,12.0,0.,12.0
1979-07-16 13:09:15.170 ,0,1,0.,12.0,0.,12.0,0.,12.0,0.,12.0
1979-07-16 13:09:27.170 ,0,1,1.,12.0,0.,12.0,0.,12.0,0.,12.0
1979-07-16 13:09:39.170 ,3,1,0.,12.0,0.,12.0,0.,12.0,0.,12.0
1979-07-16 13:09:51.170 ,3,1,0.,12.0,0.,12.0,0.,12.0,1.,12.0
1979-07-16 13:10:03.170 ,7,1,0.,12.0,0.,12.0,0.,12.0,0.,12.0
1979-07-16 13:10:15.170 ,7,1,0.,12.0,0.,12.0,0.,12.0,0.,12.0
1979-07-16 13:10:27.170 ,4,1,0.,12.0,0.,12.0,0.,12.0,0.,12.0
1979-07-16 13:10:39.170 ,4,1,0.,12.0,0.,12.0,0.,12.0,0.,12.0
1979-07-16 13:10:51.170 ,0,1,0.,12.0,0.,12.0,0.,12.0,0.,12.0
1979-07-16 13:11:03.170 ,0,1,0.,12.0,0.,12.0,0.,12.0,0.,12.0
1979-07-16 13:11:15.170 ,3,1,0.,12.0,0.,12.0,0.,12.0,0.,12.0
1979-07-16 13:11:27.170 ,3,1,0.,12.0,0.,12.0,0.,12.0,0.,12.0
1979-07-16 13:11:39.170 ,7,1,0.,12.0,0.,12.0,0.,12.0,0.,12.0
1979-07-16 13:11:51.170 ,7,1,0.,12.0,0.,12.0,0.,12.0,0.,12.0
1979-07-16 13:12:03.170 ,4,1,0.,12.0,0.,12.0,0.,12.0,0.,12.0
1979-07-16 13:12:15.170 ,4,1,0.,12.0,0.,12.0,0.,12.0,0.,12.0
1979-07-16 13:12:27.170 ,0,1,0.,12.0,0.,12.0,0.,12.0,0.,12.0
1979-07-16 13:12:39.170 ,0,1,0.,12.0,0.,12.0,0.,12.0,0.,12.0
1979-07-16 13:12:51.170 ,3,1,0.,12.0,0.,12.0,0.,12.0,0.,12.0
1979-07-16 13:13:03.170 ,3,1,0.,12.0,0.,12.0,0.,12.0,0.,12.0
1979-07-16 13:13:15.170 ,7,1,0.,12.0,0.,12.0,0.,12.0,0.,12.0
1979-07-16 13:13:27.170 ,7,1,0.,12.0,0.,12.0,0.,12.0,0.,12.0
1979-07-16 13:13:39.170 ,4,1,0.,12.0,0.,12.0,0.,12.0,0.,12.0
1979-07-16 13:13:51.170 ,4,1,0.,12.0,0.,12.0,0.,12.0,0.,12.0
1979-07-16 13:14:03.170 ,0,1,0.,12.0,0.,12.0,0.,12.0,0.,12.0
1979-07-16 13:14:15.170 ,0,1,0.,12.0,0.,12.0,0.,12.0,0.,12.0
1979-07-16 13:14:27.170 ,3,1,0.,12.0,0.,12.0,0.,12.0,0.,12.0
1979-07-16 13:14:39.170 ,3,1,0.,12.0,0.,12.0,0.,12.0,0.,12.0
1979-07-16 13:14:51.170 ,7,1,0.,12.0,0.,12.0,0.,12.0,0.,12.0
1979-07-16 13:15:03.170 ,7,1,0.,12.0,0.,12.0,0.,12.0,0.,12.0
1979-07-16 13:15:15.170 ,4,1,0.,12.0,0.,12.0,0.,12.0,0.,12.0
1979-07-16 13:15:27.170 ,4,1,0.,12.0,0.,12.0,0.,12.0,0.,12.0
1979-07-16 13:15:39.170 ,0,1,0.,12.0,0.,12.0,0.,12.0,1.,12.0
1979-07-16 13:15:51.170 ,0,1,1.,12.0,0.,12.0,0.,12.0,0.,12.0
1979-07-16 13:16:03.170 ,3,1,0.,12.0,0.,12.0,0.,12.0,0.,12.0
1979-07-16 13:16:15.170 ,3,1,0.,12.0,0.,12.0,0.,12.0,0.,12.0
1979-07-16 13:16:27.170 ,7,1,0.,12.0,0.,12.0,0.,12.0,0.,12.0
1979-07-16 13:16:39.170 ,7,1,0.,12.0,0.,12.0,0.,12.0,0.,12.0
1979-07-16 13:16:51.170 ,4,1,0.,12.0,0.,12.0,0.,12.0,0.,12.0
1979-07-16 13:17:03.170 ,4,1,0.,12.0,0.,12.0,0.,12.0,0.,12.0
1979-07-16 13:17:15.170 ,0,1,1.,12.0,0.,12.0,0.,12.0,0.,12.0
1979-07-16 13:17:27.170 ,0,1,1.,12.0,0.,12.0,0.,12.0,0.,12.0
1979-07-16 13:17:39.170 ,0,0,0.,12.0,0.,12.0,0.,12.0,0.,12.0
1979-07-16 13:17:51.170 ,0,0,0.,12.0,0.,12.0,0.,12.0,0.,12.0
1979-07-16 13:18:03.170 ,0,0,0.,12.0,0.,12.0,0.,12.0,0.,12.0
1979-07-16 13:18:15.170 ,0,0,0.,12.0,0.,12.0,0.,12.0,0.,12.0
1979-07-16 13:18:27.170 ,5,1,0.,12.0,0.,12.0,0.,12.0,0.,12.0
1979-07-16 13:18:39.170 ,5,1,0.,12.0,0.,12.0,0.,12.0,0.,12.0
1979-07-16 13:18:51.170 ,5,0,0.,12.0,0.,12.0,0.,12.0,0.,12.0
1979-07-16 13:19:03.170 ,5,0,0.,12.0,0.,12.0,0.,12.0,0.,12.0
1979-07-16 13:19:15.170 ,4,1,0.,12.0,0.,12.0,0.,12.0,0.,12.0
1979-07-16 13:19:27.170 ,4,1,0.,12.0,0.,12.0,0.,12.0,0.,12.0
1979-07-16 13:19:39.170 ,4,0,0.,12.0,0.,12.0,0.,12.0,0.,12.0
1979-07-16 13:19:51.170 ,4,0,0.,12.0,0.,12.0,0.,12.0,0.,12.0
1979-07-16 13:20:03.170 ,3,1,0.,12.0,0.,12.0,0.,12.0,0.,12.0
1979-07-16 13:20:15.170 ,3,1,0.,12.0,0.,12.0,0.,12.0,0.,12.0
1979-07-16 13:20:27.170 ,3,0,0.,12.0,0.,12.0,0.,12.0,0.,12.0
1979-07-16 13:20:39.170 ,3,0,0.,12.0,0.,12.0,0.,12.0,0.,12.0
1979-07-16 13:20:51.170 ,2,1,0.,12.0,0.,12.0,0.,12.0,0.,12.0
1979-07-16 13:21:03.170 ,2,1,0.,12.0,0.,12.0,0.,12.0,2.,12.0
1979-07-16 13:21:15.170 ,2,0,0.,12.0,0.,12.0,0.,12.0,1.,12.0
1979-07-16 13:21:27.170 ,2,0,0.,12.0,0.,12.0,0.,12.0,1.,12.0
1979-07-16 13:21:39.170 ,1,1,0.,12.0,0.,12.0,0.,12.0,1.,12.0